DW9104 Weather Reports


time (UTC)temp
C
wind
direction
speed
KPH
gust
KPH
rain 1hr
cm
rain 24hr
cm
rain mn
cm
humidity
%
barometer
mb
20260506010904 7 45 0.0 1.6 0.00 0.00 0.00 81 1014.6
20260506010404 7 310 0.0 4.8 0.00 0.00 0.00 81 1014.6
20260506005904 7 35 0.0 4.8 0.00 0.00 0.00 81 1014.6
20260506004405 7 26 0.0 1.6 0.00 0.00 0.00 83 1014.5
20260506003904 7 23 0.0 3.2 0.00 0.00 0.00 83 1014.5
20260506003405 7 334 0.0 9.7 0.00 0.00 0.00 83 1014.6
20260506002904 8 311 1.6 8.0 0.00 0.00 0.00 83 1014.6
20260506002405 8 241 0.0 4.8 0.00 0.00 0.00 84 1014.6
20260506001904 8 57 0.0 3.2 0.00 0.00 0.00 84 1014.6
20260506001404 8 339 0.0 1.6 0.00 0.00 0.00 84 1014.5
20260506000404 8 83 0.0 4.8 0.00 0.00 0.00 84 1014.5
20260505235905 8 58 1.6 4.8 0.00 0.00 0.00 84 1014.5
20260505234904 8 14 1.6 4.8 0.00 0.00 0.00 84 1014.5
20260505234404 8 32 1.6 4.8 0.00 0.00 0.00 84 1014.5
20260505232905 8 31 0.0 4.8 0.00 0.00 0.00 83 1014.5
20260505231905 8 40 3.2 9.7 0.00 0.00 0.00 82 1014.5
20260505231404 8 139 1.6 4.8 0.00 0.00 0.00 83 1014.4
20260505230905 8 348 1.6 4.8 0.00 0.00 0.00 83 1014.4
20260505230405 8 350 1.6 8.0 0.00 0.00 0.00 83 1014.4
20260505225405 8 245 1.6 8.0 0.00 0.00 0.00 82 1014.4
20260505224905 9 350 0.0 4.8 0.00 0.00 0.00 82 1014.5
20260505223905 9 328 1.6 4.8 0.00 0.00 0.00 80 1014.4
20260505223405 9 322 3.2 9.7 0.00 0.00 0.00 79 1014.4
20260505222904 9 339 1.6 8.0 0.00 0.00 0.00 78 1014.4
20260505222404 9 319 1.6 4.8 0.00 0.00 0.00 78 1014.4
20260505221906 9 267 1.6 8.0 0.00 0.00 0.00 78 1014.4
20260505221405 9 8 3.2 19.3 0.00 0.00 0.00 78 1014.3
20260505220905 9 344 3.2 11.3 0.00 0.00 0.00 79 1014.3
20260505220405 9 350 1.6 4.8 0.00 0.00 0.00 80 1014.4
20260505215904 10 340 3.2 11.3 0.00 0.00 0.00 81 1014.3
20260505214904 10 37 1.6 8.0 0.00 0.00 0.00 81 1014.2
20260505214404 10 348 1.6 8.0 0.00 0.00 0.00 81 1014.2
20260505213905 10 322 3.2 9.7 0.00 0.00 0.00 81 1014.2
20260505213404 10 41 1.6 8.0 0.00 0.00 0.00 81 1014.2
20260505212905 10 83 1.6 8.0 0.00 0.00 0.00 81 1014.2
20260505212404 10 337 0.0 4.8 0.00 0.00 0.00 81 1014.2
20260505211905 10 35 1.6 4.8 0.00 0.00 0.00 81 1014.3
20260505211404 10 107 0.0 3.2 0.00 0.00 0.00 81 1014.3
20260505210905 10 350 1.6 4.8 0.00 0.00 0.00 80 1014.2
20260505205904 10 42 0.0 4.8 0.00 0.00 0.00 81 1014.2
20260505205405 10 331 0.0 3.2 0.00 0.00 0.00 81 1014.1
20260505204905 10 358 1.6 4.8 0.00 0.00 0.00 81 1014.0
20260505204416 10 311 0.0 4.8 0.00 0.00 0.00 81 1014.0
20260505203915 10 27 1.6 3.2 0.00 0.00 0.00 81 1014.1
20260505203404 10 13 0.0 1.6 0.00 0.00 0.00 81 1014.0
20260505202904 10 35 1.6 3.2 0.00 0.00 0.00 80 1014.0
20260505202414 10 72 0.0 4.8 0.00 0.00 0.00 80 1013.9
20260505201904 10 78 0.0 3.2 0.00 0.00 0.00 80 1013.9
20260505200404 11 44 0.0 4.8 0.00 0.00 0.00 79 1013.8
20260505195904 11 96 0.0 1.6 0.00 0.00 0.00 78 1013.8
20260505195404 11 84 0.0 1.6 0.00 0.00 0.00 78 1013.7
20260505194905 11 27 0.0 3.2 0.00 0.00 0.00 77 1013.6
20260505194404 11 80 1.6 4.8 0.00 0.00 0.00 77 1013.6
20260505193904 11 70 1.6 4.8 0.00 0.00 0.00 76 1013.6
20260505193404 11 17 0.0 3.2 0.00 0.00 0.00 75 1013.5
20260505192905 11 92 0.0 4.8 0.00 0.00 0.00 76 1013.5
20260505192404 11 71 0.0 3.2 0.00 0.00 0.00 75 1013.5
20260505191905 11 105 0.0 0.0 0.00 0.00 0.00 75 1013.4
20260505191404 11 97 0.0 1.6 0.00 0.00 0.00 75 1013.4
20260505190905 11 22 0.0 1.6 0.00 0.00 0.00 76 1013.4
20260505190404 11 110 0.0 1.6 0.00 0.00 0.00 76 1013.4
20260505185904 11 116 0.0 3.2 0.00 0.00 0.00 76 1013.4
20260505185404 11 117 0.0 1.6 0.00 0.00 0.00 76 1013.3
20260505184904 11 138 0.0 1.6 0.00 0.00 0.00 75 1013.3
20260505184404 11 69 1.6 4.8 0.00 0.00 0.00 75 1013.3
20260505183904 11 103 0.0 3.2 0.00 0.00 0.00 74 1013.2
20260505183404 11 104 0.0 1.6 0.00 0.00 0.00 74 1013.3
20260505182904 12 93 1.6 8.0 0.00 0.00 0.00 73 1013.2
20260505181404 12 30 0.0 4.8 0.00 0.00 0.00 71 1013.1
20260505180904 12 90 1.6 8.0 0.00 0.00 0.00 70 1013.1
20260505180404 12 95 0.0 1.6 0.00 0.00 0.00 71 1013.1
20260505175904 12 89 0.0 1.6 0.00 0.00 0.00 70 1013.1
20260505175404 12 121 0.0 4.8 0.00 0.00 0.00 71 1013.1
20260505174404 12 28 0.0 4.8 0.00 0.00 0.00 69 1013.1
20260505173904 12 89 0.0 3.2 0.00 0.00 0.00 69 1013.2
20260505173404 12 97 0.0 4.8 0.00 0.00 0.00 70 1013.1
20260505172905 13 74 1.6 8.0 0.00 0.00 0.00 69 1013.1
20260505171904 13 56 0.0 4.8 0.00 0.00 0.00 68 1013.2
20260505171404 13 12 0.0 8.0 0.00 0.00 0.00 66 1013.2
20260505170904 14 2 1.6 4.8 0.00 0.00 0.00 63 1013.3
20260505170404 14 90 1.6 8.0 0.00 0.00 0.00 63 1013.2
20260505165904 14 92 1.6 9.7 0.00 0.00 0.00 63 1013.2
20260505165403 14 70 0.0 4.8 0.00 0.00 0.00 65 1013.2
20260505164905 14 87 1.6 9.7 0.00 0.00 0.00 63 1013.2
20260505164404 14 30 0.0 12.9 0.00 0.00 0.00 62 1013.1
20260505163904 15 107 0.0 3.2 0.00 0.00 0.00 65 1013.1
20260505163404 14 44 0.0 4.8 0.00 0.00 0.00 65 1013.1
20260505162904 14 105 0.0 3.2 0.00 0.00 0.00 68 1013.0
20260505162404 13 59 1.6 8.0 0.00 0.00 0.00 67 1013.1
20260505161905 13 83 0.0 3.2 0.00 0.00 0.00 67 1013.1
20260505161404 13 112 0.0 3.2 0.00 0.00 0.00 66 1013.0
20260505160904 13 17 1.6 4.8 0.00 0.00 0.00 64 1013.1
20260505160404 14 19 1.6 4.8 0.00 0.00 0.00 64 1013.1
20260505152904 16 49 1.6 12.9 0.00 0.00 0.00 61 1013.3
20260505152403 15 65 0.0 3.2 0.00 0.00 0.00 61 1013.2
20260505151904 15 46 3.2 4.8 0.00 0.00 0.00 58 1013.2
20260505150903 15 106 0.0 8.0 0.00 0.00 0.00 62 1013.2
20260505150404 15 127 0.0 3.2 0.00 0.00 0.00 61 1013.2
20260505140406 15 138 0.0 1.6 0.00 0.00 0.00 60 1013.3
20260505124906 13 113 0.0 4.8 0.00 0.00 0.00 66 1013.5
20260505124405 13 27 0.0 3.2 0.00 0.00 0.00 64 1013.4
20260505123906 14 110 1.6 4.8 0.00 0.00 0.00 63 1013.4
20260505123405 15 68 1.6 4.8 0.00 0.00 0.00 60 1013.4
20260505122906 15 61 0.0 3.2 0.00 0.00 0.00 57 1013.4
20260505122405 15 102 1.6 4.8 0.00 0.00 0.00 57 1013.4
20260505121906 15 101 1.6 4.8 0.00 0.00 0.00 58 1013.4
20260505121412 15 114 0.0 8.0 0.00 0.00 0.00 56 1013.5
20260505120905 16 96 1.6 3.2 0.00 0.00 0.00 54 1013.5
20260505120405 16 57 0.0 4.8 0.00 0.00 0.00 54 1013.5
20260505115905 16 63 0.0 3.2 0.00 0.00 0.00 56 1013.4
20260505115405 15 95 0.0 4.8 0.00 0.00 0.00 59 1013.4
20260505114906 15 55 1.6 4.8 0.00 0.00 0.00 55 1013.5
20260505114405 15 102 0.0 4.8 0.00 0.00 0.00 60 1013.4
20260505113906 14 91 0.0 8.0 0.00 0.00 0.00 62 1013.5
20260505112905 13 44 1.6 8.0 0.00 0.00 0.00 61 1013.6
20260505112405 13 90 1.6 9.7 0.00 0.00 0.00 64 1013.8
20260505111405 13 103 0.0 8.0 0.00 0.00 0.00 62 1013.8
20260505110905 13 117 1.6 4.8 0.00 0.00 0.00 59 1013.7
20260505110405 14 43 1.6 4.8 0.00 0.00 0.00 60 1013.7
20260505101905 13 35 1.6 8.0 0.00 0.00 0.00 61 1014.1
20260505101405 12 104 0.0 4.8 0.00 0.00 0.00 63 1014.1
20260505100905 13 87 0.0 3.2 0.00 0.00 0.00 61 1014.1
20260505100405 13 85 0.0 16.1 0.00 0.00 0.00 61 1014.2
20260505095905 13 356 3.2 9.7 0.00 0.00 0.00 59 1014.2
20260505095405 13 56 0.0 4.8 0.00 0.00 0.00 62 1014.2
20260505094905 12 57 3.2 4.8 0.00 0.00 0.00 61 1014.2
20260505094405 12 25 1.6 4.8 0.00 0.00 0.00 63 1014.3
20260505093905 12 78 1.6 4.8 0.00 0.00 0.00 65 1014.2
20260505092906 12 75 0.0 4.8 0.00 0.00 0.00 64 1014.3
20260505092405 13 99 1.6 4.8 0.00 0.00 0.00 65 1014.3
20260505091905 13 59 0.0 4.8 0.00 0.00 0.00 64 1014.2
20260505091405 13 37 0.0 4.8 0.00 0.00 0.00 64 1014.2
20260505090905 13 34 1.6 8.0 0.00 0.00 0.00 64 1014.3
20260505085905 13 84 1.6 8.0 0.00 0.00 0.00 63 1014.3
20260505085405 13 104 0.0 4.8 0.00 0.00 0.00 65 1014.4
20260505084906 13 36 1.6 9.7 0.00 0.00 0.00 64 1014.4
20260505084405 13 88 0.0 4.8 0.00 0.00 0.00 67 1014.5
20260505083905 13 78 1.6 4.8 0.00 0.00 0.00 66 1014.4
20260505083405 12 159 1.6 8.0 0.00 0.00 0.00 66 1014.5
20260505082906 12 72 1.6 4.8 0.00 0.00 0.00 68 1014.5
20260505082405 12 33 1.6 4.8 0.00 0.00 0.00 69 1014.5
20260505081905 12 99 0.0 4.8 0.00 0.00 0.00 71 1014.6
20260505081405 12 89 0.0 4.8 0.00 0.00 0.00 73 1014.6
20260505080905 12 5 1.6 4.8 0.00 0.00 0.00 73 1014.6
20260505080406 12 75 0.0 4.8 0.00 0.00 0.00 73 1014.7
20260505075905 12 329 1.6 8.0 0.00 0.00 0.00 75 1014.5
20260505075405 12 69 0.0 3.2 0.00 0.00 0.00 76 1014.6
20260505074905 12 97 0.0 3.2 0.00 0.00 0.00 76 1014.6
20260505073905 11 88 1.6 4.8 0.00 0.00 0.00 75 1014.6
20260505073405 11 52 1.6 8.0 0.00 0.00 0.00 76 1014.6
20260505072905 11 52 1.6 4.8 0.00 0.00 0.00 77 1014.5
20260505071905 11 96 0.0 1.6 0.00 0.00 0.00 81 1014.7
20260505071405 11 123 1.6 8.0 0.00 0.00 0.00 79 1014.7
20260505070905 11 80 0.0 4.8 0.00 0.00 0.00 81 1014.7
20260505070405 11 68 1.6 8.0 0.00 0.00 0.00 81 1014.7
20260505065905 11 112 0.0 1.6 0.00 0.00 0.00 83 1014.7
20260505065404 11 41 0.0 1.6 0.00 0.00 0.00 86 1014.7
20260505064905 10 88 0.0 1.6 0.00 0.00 0.00 86 1014.7
20260505064405 10 79 0.0 1.6 0.00 0.00 0.00 87 1014.7
20260505063905 10 100 0.0 4.8 0.00 0.00 0.00 87 1014.8
20260505063404 10 88 0.0 3.2 0.00 0.00 0.00 88 1014.8
20260505062905 9 95 0.0 4.8 0.00 0.00 0.00 89 1014.7
20260505062405 9 120 0.0 4.8 0.00 0.00 0.00 90 1014.7
20260505061405 8 98 0.0 1.6 0.00 0.00 0.00 92 1014.6
20260505060905 8 104 0.0 4.8 0.00 0.00 0.00 92 1014.6
20260505060405 8 93 0.0 1.6 0.00 0.00 0.00 93 1014.6
20260505055405 7 49 0.0 1.6 0.00 0.00 0.00 93 1014.6
20260505054905 7 124 0.0 4.8 0.00 0.00 0.00 93 1014.6
20260505054405 7 103 0.0 1.6 0.00 0.00 0.00 93 1014.6
20260505053905 7 112 0.0 1.6 0.00 0.00 0.00 94 1014.6
20260505053405 7 108 0.0 1.6 0.00 0.00 0.00 94 1014.6
20260505052904 7 26 1.6 4.8 0.00 0.00 0.00 94 1014.6
20260505052405 7 90 0.0 4.8 0.00 0.00 0.00 94 1014.6
20260505051905 7 106 0.0 1.6 0.00 0.00 0.00 94 1014.5
20260505051405 7 125 0.0 4.8 0.00 0.00 0.00 94 1014.6
20260505050905 7 75 0.0 3.2 0.00 0.00 0.00 95 1014.6
20260505050405 7 109 0.0 1.6 0.00 0.00 0.00 95 1014.6
20260505041405 7 86 0.0 0.0 0.00 0.00 0.00 95 1014.5
20260505040904 7 86 0.0 1.6 0.00 0.00 0.00 95 1014.4
20260505040404 7 86 0.0 0.0 0.00 0.00 0.00 96 1014.4
20260505035904 7 86 0.0 1.6 0.00 0.00 0.00 96 1014.4
20260505035404 7 86 0.0 1.6 0.00 0.00 0.00 96 1014.4
20260505033905 7 102 0.0 0.0 0.00 0.00 0.00 96 1014.4
20260505033405 7 102 0.0 1.6 0.00 0.00 0.00 96 1014.5
20260505032404 7 102 0.0 0.0 0.00 0.00 0.00 96 1014.6
20260505031905 7 102 0.0 0.0 0.00 0.00 0.00 96 1014.6
20260505031412 6 102 0.0 3.2 0.00 0.00 0.00 96 1014.6
20260505030905 6 106 0.0 1.6 0.00 0.00 0.00 95 1014.7
20260505030404 6 106 0.0 0.0 0.00 0.00 0.00 95 1014.7
20260505025905 6 106 0.0 0.0 0.00 0.00 0.00 94 1014.6
20260505025405 6 106 0.0 0.0 0.00 0.00 0.00 94 1014.7
20260505024405 6 106 0.0 0.0 0.00 0.00 0.00 93 1014.6
20260505023904 6 106 0.0 0.0 0.00 0.00 0.00 93 1014.6
20260505023405 6 106 0.0 1.6 0.00 0.00 0.00 93 1014.6
20260505022905 6 106 0.0 0.0 0.00 0.00 0.00 93 1014.7
20260505022405 7 106 0.0 0.0 0.00 0.00 0.00 93 1014.7
20260505021905 7 106 0.0 0.0 0.00 0.00 0.00 92 1014.7
20260505021405 7 106 0.0 0.0 0.00 0.00 0.00 92 1014.7
20260505020905 7 106 0.0 0.0 0.00 0.00 0.00 92 1014.8
20260505020404 7 106 0.0 0.0 0.00 0.00 0.00 91 1014.9
20260505015904 7 106 0.0 0.0 0.00 0.00 0.00 91 1014.8
20260505015405 7 106 0.0 0.0 0.00 0.00 0.00 91 1014.8
20260505014905 7 106 0.0 1.6 0.00 0.00 0.00 91 1014.7
20260505014405 7 106 0.0 1.6 0.00 0.00 0.00 91 1014.8
20260505013904 7 106 0.0 0.0 0.00 0.00 0.00 90 1014.9
20260505013405 7 146 0.0 1.6 0.00 0.00 0.00 90 1014.9
20260505012905 8 147 0.0 0.0 0.00 0.00 0.00 90 1015.0
20260505012404 8 148 0.0 1.6 0.00 0.00 0.00 90 1015.0
20260505011405 8 104 0.0 1.6 0.00 0.00 0.00 89 1015.1